Weather observations for the past three days for
Birchwood, Birchwood Airport
Metric (Imperial)
Date Time (akdt) Wind (kph) Vis. (km) Weather Sky Cond. Temperature (ºC) Relative Humidity Wind Chill (°C) Heat Index (°C) Pressure Precipitation (cm)
Air Dwpt 6 hour altimeter (cm) sea level (mb) 1 hr 3 hr 6 hr
Max. Min.
07 10:56 NE 11 16.09 Overcast OVC075 6.7 0 63% 5 76.38 1018.4
07 09:56 NE 9 16.09 Overcast FEW043 OVC070 6.1 0.6 6.1 3.9 68% 4 76.4 1018.5
07 08:56 NE 15 16.09 Overcast OVC038 5 1.1 76% 2 76.4 1018.5
07 07:56 NE 9 16.09 Overcast OVC034 3.9 1.1 82% 2 76.4 1018.8
07 06:56 Calm 16.09 Overcast BKN030 OVC040 3.9 0 76% 76.4 1018.7
07 05:56 S 7 16.09 Overcast OVC041 4.4 0 73% 3 76.4 1018.7
07 04:56 SW 11 16.09 Overcast BKN041 OVC050 4.4 0.6 77% 2 76.38 1018.3
07 03:56 NE 6 16.09 Overcast BKN037 OVC050 3.9 2.8 5.6 3.9 93% 76.38 1018.4 0.08
07 02:56 Calm 16.09 Light Rain FEW037 SCT055 BKN080 4.4 2.2 86% 76.38 1018.4
07 01:56 Calm 16.09 Overcast FEW055 OVC070 4.4 2.2 86% 76.38 1018.2
07 00:56 S 6 16.09 Overcast BKN026 OVC075 5 2.8 86% 76.35 1017.9 0.03 0.08
06 23:56 S 6 16.09 Light Rain OVC055 5 3.3 89% 76.3 1017.2 0.03
06 22:56 SW 11 16.09 Light Rain SCT043 OVC050 5.6 3.3 85% 3 76.28 1016.8 0.03
06 21:56 S 13 16.09 Light Rain FEW031 BKN048 OVC055 5.6 3.3 8.3 5.6 85% 3 76.2 1016.0 0.03 0.08
06 20:56 S 9 16.09 Light Rain FEW020 BKN026 OVC049 6.1 4.4 89% 4 76.2 1016.0 0.05
06 19:56 Vrbl 7 16.09 Light Rain FEW029 OVC060 6.7 3.9 83% 6 76.17 1015.5
06 18:56 W 7 16.09 Light Rain FEW026 BKN050 OVC060 7.2 3.9 80% 6 76.15 1015.1
06 17:56 Vrbl 9 16.09 Light Rain BKN036 OVC060 7.8 3.3 73% 6 76.12 1014.8
06 16:56 W 13 16.09 Overcast OVC033 7.8 3.3 73% 6 76.1 1014.7
06 15:56 W 13 16.09 Overcast OVC035 8.3 2.8 8.3 5.6 69% 6 76.07 1014.3
06 14:56 W 15 16.09 Mostly Cloudy BKN035 8.3 1.7 63% 6 76.05 1014.1
06 13:56 W 13 16.09 Mostly Cloudy FEW035 BKN080 7.8 2.2 68% 6 76.05 1013.9
06 12:56 W 6 16.09 Light Rain BKN031 OVC040 7.8 1.7 66% 76.02 1013.4
06 11:56 W 6 16.09 Overcast SCT060 OVC070 6.7 3.3 79% 75.97 1012.9
06 10:56 N 9 16.09 Overcast SCT060 OVC070 6.1 2.8 80% 4 75.95 1012.7
06 09:56 N 6 16.09 Light Rain OVC048 5.6 3.3 5.6 3.9 85% 75.95 1012.5
06 08:56 N 7 16.09 Overcast OVC055 5 2.8 86% 4 75.92 1012.2
06 07:56 NE 7 16.09 Overcast OVC070 5.6 1.1 73% 4 75.9 1011.9
06 06:56 Calm 16.09 Overcast OVC065 4.4 1.1 79% 75.87 1011.7
06 05:56 NE 6 16.09 Light Rain OVC065 4.4 1.1 79% 75.9 1011.7
06 04:56 NE 11 16.09 Overcast OVC060 4.4 1.1 79% 2 75.87 1011.6
06 03:56 Calm 16.09 Overcast SCT048 OVC070 5.6 0 8.3 4.4 68% 75.84 1011.2
06 02:56 S 6 16.09 Overcast OVC070 4.4 0.6 77% 75.82 1010.8
06 01:56 W 7 16.09 Partly Cloudy FEW070 SCT090 4.4 0.6 77% 3 75.79 1010.4
06 00:56 SE 7 16.09 Fair CLR 5.6 0.6 71% 4 75.74 1009.7
05 23:56 NE 13 16.09 Overcast OVC080 7.2 1.1 66% 5 75.69 1009.1
05 22:56 E 13 16.09 Overcast OVC080 7.2 1.7 68% 5 75.64 1008.6
05 21:56 W 9 16.09 Overcast BKN060 OVC090 7.8 2.2 11.1 7.8 68% 6 75.59 1007.9
05 20:56 W 6 16.09 Overcast OVC085 10 2.8 61% 75.57 1007.4
05 19:56 Calm 16.09 Overcast FEW043 BKN065 OVC085 11.1 -0.6 45% 75.54 1007.0
05 18:56 W 7 12.87 Overcast OVC080 11.1 2.8 57% 75.51 1006.6
05 17:56 NW 9 16.09 A Few Clouds FEW039 10 3.9 66% 9 75.49 1006.4
05 16:56 SE 11 16.09 Overcast OVC050 10.6 0.6 50% 75.49 1006.4
05 15:56 S 15 16.09 Mostly Cloudy SCT060 BKN090 10.6 0 11.1 4.4 48% 75.49 1006.3
05 14:56 W 11 16.09 Overcast OVC070 10 3.9 66% 9 75.46 1006.1
05 13:56 W 7 16.09 Fair CLR 9.4 2.8 64% 9 75.46 1005.9
05 12:56 W 7 16.09 Fair CLR 8.3 3.9 74% 7 75.44 1005.7
05 11:56 W 6 16.09 Fair CLR 7.2 3.3 77% 75.41 1005.5
05 10:56 W 7 16.09 Mostly Cloudy BKN080 5.6 3.9 89% 4 75.41 1005.3
05 09:56 W 7 16.09 A Few Clouds FEW085 4.4 3.3 5.6 2.8 93% 3 75.39 1005.0
05 08:56 SW 6 16.09 Overcast FEW002 OVC070 5.6 4.4 92% 75.34 1004.4
05 07:56 Calm 16.09 Light Rain BKN002 OVC055 3.9 3.9 100% 75.31 1004.1
05 06:56 NW 7 2.01 Fog/Mist OVC070 2.8 2.8 100% 1 75.29 1003.6
05 05:56 NE 7 11.27 Overcast OVC001 3.3 3.3 100% 2 75.26 1003.3
05 04:56 NE 7 0.80 Fog BKN045 BKN055 OVC090 3.3 3.3 100% 2 75.26 1003.5
05 03:56 Calm 16.09 Light Rain OVC004 4.4 3.9 6.1 3.9 97% 75.26 1003.4
05 02:56 W 6 16.09 Overcast OVC004 4.4 3.9 97% 75.26 1003.5
05 01:56 W 6 4.83 Light Rain Fog/Mist OVC004 4.4 3.9 97% 75.23 1003.2
05 00:56 W 9 0.80 Fog OVC004 3.9 3.3 96% 2 75.29 1003.6
04 23:56 SW 7 14.48 Overcast BKN002 OVC007 5 4.4 96% 4 75.31 1003.9
04 22:56 S 7 6.44 Fog/Mist OVC004 5.6 5 96% 4 75.31 1003.9
04 21:56 SW 9 16.09 Overcast BKN006 OVC090 6.1 5 7.8 5.6 93% 4 75.31 1004.2
04 20:56 W 9 16.09 Partly Cloudy SCT010 5.6 4.4 92% 4 75.36 1004.6
04 19:56 W 11 16.09 A Few Clouds FEW120 7.2 5.6 90% 5 75.39 1005.2
04 18:56 W 9 16.09 Mostly Cloudy BKN008 7.2 5.6 90% 6 75.46 1006.2
04 17:56 S 7 16.09 Partly Cloudy SCT006 SCT120 7.2 5.6 90% 6 75.54 1007.0
04 16:56 SW 11 16.09 Overcast OVC006 7.2 5.6 90% 5 75.64 1008.5
04 15:56 SW 15 16.09 Overcast OVC006 7.2 6.1 7.2 3.9 93% 5 75.74 1009.7 0.2
04 14:56 SW 11 16.09 Overcast OVC004 7.2 5.6 90% 5 75.79 1010.4
04 13:56 S 11 16.09 Mostly Cloudy BKN004 6.7 5.6 93% 5 75.84 1011.2
04 12:56 SW 9 16.09 Overcast BKN075 OVC100 6.1 5.6 97% 4 75.92 1012.2 0.2
Date Time (akdt) Wind (kph) Vis. (km) Weather Sky Cond. Air Dwpt Max. Min. Relative Humidity Wind Chill (°C) Heat Index (°C) altimeter (cm) sea level (mb) 1 hr 3 hr 6 hr
6 hour
Temperature (ºC) Pressure Precipitation (cm)